(°C)
-4°
-4°
-3°
-3°
-3°
-2°
-2°
(°C)
-10°
-9°
-9°
-9°
-9°
-9°
-8°
SSO
SSO
SSO
SSO
SSO
SO
SO
(km/h)
15-37
16-36
17-33
18-33
18-33
18-34
18-35
(mm)
0
1
0.7
0.8
0.6
0
0.3
(%)
47
97
97
98
98
83
83

Élévation du soleil

/ -57.1°
sun-icon
UV 0
09:36
17:05
Premier croissant (45°)
13:13
19:55

METAR pour 55.03°N 82.6°E (UNNT)

Heure Conditions Température/
Point de rosée
Vent Visibilité Météo Nuages Pression Changement Brut
VFR -4°C / -6°C 190º 8kt >10km Light Snow 1.00mm precipitation Vertical Visibility of 0ft. 1014 No Significant change. Runway 25: Wet or puddles, 51-100% contamination with 1mm, friction coefficient 0.50. Runway 16: Wet or puddles, 11-25% contamination with 1mm, friction coefficient 0.60. UNNT 061830Z 19004MPS 9999 -SN BKN048 M04/M06 Q1014 R25/290150 R16/220160 NOSIG RMK QFE751/1001
VFR -4°C / -6°C 180º 6kt >10km Light Snow 1.00mm precipitation Vertical Visibility of 0ft. 1015 No Significant change. Runway 25: Wet or puddles, 51-100% contamination with 1mm, friction coefficient 0.50. Runway 16: Wet or puddles, 11-25% contamination with 1mm, friction coefficient 0.60. UNNT 061800Z 18003MPS 9999 -SN BKN045 M04/M06 Q1015 R25/290150 R16/220160 NOSIG RMK QFE751/1001
VFR -5°C / -6°C 190º 6kt >10km - Clouds and Visibility OK 1015 No Significant change. Runway 25: Wet or puddles, 51-100% contamination with 1mm, friction coefficient 0.50. Runway 16: Wet or puddles, 11-25% contamination with 1mm, friction coefficient 0.60. UNNT 061730Z 19003MPS CAVOK M05/M06 Q1015 R25/290150 R16/220160 NOSIG RMK QFE751/1001
VFR -5°C / -6°C 190º 6kt >10km - Clouds and Visibility OK 1015 No Significant change. Runway 25: Wet or puddles, 51-100% contamination with 1mm, friction coefficient 0.50. Runway 16: Wet or puddles, 11-25% contamination with 1mm, friction coefficient 0.60. UNNT 061700Z 19003MPS CAVOK M05/M06 Q1015 R25/290150 R16/220160 NOSIG RMK QFE751/1001
VFR -5°C / -7°C 190º 8kt >10km - Clouds and Visibility OK 1015 No Significant change. Runway 25: Wet or puddles, 51-100% contamination with 1mm, friction coefficient 0.50. Runway 16: Wet or puddles, 11-25% contamination with 1mm, friction coefficient 0.60. UNNT 061630Z 19004MPS CAVOK M05/M07 Q1015 R25/290150 R16/220160 NOSIG RMK QFE751/1002
VFR -6°C / -7°C 180º 8kt >10km - Clouds and Visibility OK 1015 No Significant change. Runway 25: Wet or puddles, 51-100% contamination with 1mm, friction coefficient 0.50. Runway 16: Wet or puddles, 11-25% contamination with 1mm, friction coefficient 0.60. UNNT 061600Z 18004MPS CAVOK M06/M07 Q1015 R25/290150 R16/220160 NOSIG RMK QFE751/1002
VFR -6°C / -7°C 190º 6kt >10km - Clouds and Visibility OK 1015 No Significant change. Runway 25: Wet or puddles, 51-100% contamination with 1mm, friction coefficient 0.50. Runway 16: Wet or puddles, 11-25% contamination with 1mm, friction coefficient 0.60. UNNT 061530Z 19003MPS CAVOK M06/M07 Q1015 R25/290150 R16/220160 NOSIG RMK QFE752/1002
VFR -6°C / -7°C 190º 8kt >10km - Scattered Clouds 1500ft 1016 No Significant change. Runway 25: Wet or puddles, 51-100% contamination with 1mm, friction coefficient 0.50. Runway 16: Wet or puddles, 11-25% contamination with 1mm, friction coefficient 0.60. UNNT 061500Z 19004MPS 9999 SCT015 M06/M07 Q1016 R25/290150 R16/220160 NOSIG RMK QFE752/1002
MVFR -6°C / -7°C 190º 6kt >10km - Broken Clouds 1500ft 1016 No Significant change. Runway 25: Wet or puddles, 51-100% contamination with 1mm, friction coefficient 0.50. Runway 16: Wet or puddles, 11-25% contamination with 1mm, friction coefficient 0.60. UNNT 061430Z 19003MPS 9999 BKN015 M06/M07 Q1016 R25/290150 R16/220160 NOSIG RMK QFE752/1003
VFR -6°C / -8°C 190º 8kt >10km - Scattered Clouds 1200ft 1016 No Significant change. Runway 25: Wet or puddles, 51-100% contamination with 1mm, friction coefficient 0.50. Runway 16: Wet or puddles, 11-25% contamination with 1mm, friction coefficient 0.60. UNNT 061400Z 19004MPS 9999 SCT012 M06/M08 Q1016 R25/290150 R16/220160 NOSIG RMK QFE752/1003
VFR -6°C / -7°C 190º 6kt >10km - Scattered Clouds 1200ft 1016 No Significant change. Runway 25: Wet or puddles, 51-100% contamination with 1mm, friction coefficient 0.50. Runway 16: Wet or puddles, 11-25% contamination with 1mm, friction coefficient 0.60. UNNT 061330Z 19003MPS 9999 SCT012 M06/M07 Q1016 R25/290150 R16/220160 NOSIG RMK QFE752/1003
MVFR -6°C / -7°C 190º 6kt >10km - Broken Clouds 1000ft 1016 No Significant change. Runway 25: Wet or puddles, 51-100% contamination with 1mm, friction coefficient 0.50. Runway 16: Wet or puddles, 11-25% contamination with 1mm, friction coefficient 0.60. UNNT 061300Z 19003MPS 9999 BKN010 M06/M07 Q1016 R25/290150 R16/220160 NOSIG RMK QFE752/1003
VFR -5°C / -7°C 190º 6kt >10km - Scattered Clouds 1000ft 1016 No Significant change. Runway 25: Wet or puddles, 51-100% contamination with 1mm, friction coefficient 0.50. Runway 16: Wet or puddles, 11-25% contamination with 1mm, friction coefficient 0.60. UNNT 061230Z 19003MPS 9999 SCT010 M05/M07 Q1016 R25/290150 R16/220160 NOSIG RMK QFE752/1003
VFR -5°C / -7°C 180º 6kt >10km - Clouds and Visibility OK 1016 No Significant change. Runway 25: Wet or puddles, 51-100% contamination with 1mm, friction coefficient 0.50. Runway 16: Wet or puddles, 11-25% contamination with 1mm, friction coefficient 0.60. UNNT 061200Z 18003MPS CAVOK M05/M07 Q1016 R25/290150 R16/220160 NOSIG RMK QFE752/1003
VFR -5°C / -7°C 180º 6kt >10km - Clouds and Visibility OK 1016 No Significant change. Runway 25: Wet or puddles, 51-100% contamination with 1mm, friction coefficient 0.50. Runway 16: Wet or puddles, 11-25% contamination with 1mm, friction coefficient 0.60. UNNT 061130Z 18003MPS CAVOK M05/M07 Q1016 R25/290150 R16/220160 NOSIG RMK QFE752/1003
VFR -4°C / -6°C 180º 8kt >10km - Clouds and Visibility OK 1016 No Significant change. Runway 25: Wet or puddles, 51-100% contamination with 1mm, friction coefficient 0.50. Runway 16: Wet or puddles, 11-25% contamination with 1mm, friction coefficient 0.60. UNNT 061100Z 18004MPS CAVOK M04/M06 Q1016 R25/290150 R16/220160 NOSIG RMK QFE752/1003
VFR -4°C / -7°C 170º 8kt >10km - Clouds and Visibility OK 1017 No Significant change. Runway 25: Wet or puddles, 51-100% contamination with 1mm, friction coefficient 0.50. Runway 16: Wet or puddles, 11-25% contamination with 1mm, friction coefficient 0.60. UNNT 061030Z 17004MPS CAVOK M04/M07 Q1017 R25/290150 R16/220160 NOSIG RMK QFE752/1003
VFR -4°C / -6°C 170º 6kt >10km - Clouds and Visibility OK 1017 No Significant change. Runway 25: Wet or puddles, 51-100% contamination with 1mm, friction coefficient 0.50. Runway 16: Wet or puddles, 11-25% contamination with 1mm, friction coefficient 0.60. UNNT 061000Z 17003MPS CAVOK M04/M06 Q1017 R25/290150 R16/220160 NOSIG RMK QFE752/1003
VFR -3°C / -6°C 170º 8kt >10km - Clouds and Visibility OK 1017 No Significant change. Runway 25: Wet or puddles, 51-100% contamination with 1mm, friction coefficient 0.50. Runway 16: Wet or puddles, 11-25% contamination with 1mm, friction coefficient 0.60. UNNT 060930Z 17004MPS CAVOK M03/M06 Q1017 R25/290150 R16/220160 NOSIG RMK QFE752/1003
VFR -3°C / -6°C 170º 8kt >10km - Clouds and Visibility OK 1016 No Significant change. Runway 25: Wet or puddles, 51-100% contamination with 1mm, friction coefficient 0.50. Runway 16: Wet or puddles, 11-25% contamination with 1mm, friction coefficient 0.60. UNNT 060900Z 17004MPS CAVOK M03/M06 Q1016 R25/290150 R16/220160 NOSIG RMK QFE752/1003
VFR -2°C / -5°C 190º 8kt >10km - Clouds and Visibility OK 1017 No Significant change. Runway 25: Wet or puddles, 51-100% contamination with 1mm, friction coefficient 0.50. Runway 16: Wet or puddles, 11-25% contamination with 1mm, friction coefficient 0.60. UNNT 060830Z 19004MPS CAVOK M02/M05 Q1017 R25/290150 R16/220160 NOSIG RMK QFE752/1003
VFR -2°C / -5°C 190º 8kt >10km - Clouds and Visibility OK 1017 No Significant change. Runway 25: Wet or puddles, 51-100% contamination with 1mm, friction coefficient 0.50. Runway 16: Frozen ridges, 26-50% contamination with 1mm, friction coefficient 0.38. UNNT 060800Z 19004MPS CAVOK M02/M05 Q1017 R25/290150 R16/950138 NOSIG RMK QFE753/1004
VFR -2°C / -5°C 200º 10kt >10km - Clouds and Visibility OK 1017 No Significant change. Runway 25: Wet or puddles, 51-100% contamination with 1mm, friction coefficient 0.50. Runway 16: Frozen ridges, 26-50% contamination with 1mm, friction coefficient 0.38. UNNT 060730Z 20005MPS CAVOK M02/M05 Q1017 R25/290150 R16/950138 NOSIG RMK QFE753/1004
VFR -2°C / -6°C 190º 10kt >10km - Clouds and Visibility OK 1017 No Significant change. Runway 16: Frozen ridges, 26-50% contamination with 1mm, friction coefficient 0.38. Runway 25: Wet or puddles, 51-100% contamination with 1mm, friction coefficient 0.50. UNNT 060700Z 19005MPS CAVOK M02/M06 Q1017 R16/950138 R25/290150 NOSIG RMK QFE753/1004

VFR

-4°C / -6°C

[Plus]
Vent 190º 8kt
Visibilité >10km
Météo Light Snow 1.00mm precipitation
Nuages Vertical Visibility of 0ft.
Pression 1014
Changement No Significant change. Runway 25: Wet or puddles, 51-100% contamination with 1mm, friction coefficient 0.50. Runway 16: Wet or puddles, 11-25% contamination with 1mm, friction coefficient 0.60.
Brut UNNT 061830Z 19004MPS 9999 -SN BKN048 M04/M06 Q1014 R25/290150 R16/220160 NOSIG RMK QFE751/1001

VFR

-4°C / -6°C

[Plus]
Vent 180º 6kt
Visibilité >10km
Météo Light Snow 1.00mm precipitation
Nuages Vertical Visibility of 0ft.
Pression 1015
Changement No Significant change. Runway 25: Wet or puddles, 51-100% contamination with 1mm, friction coefficient 0.50. Runway 16: Wet or puddles, 11-25% contamination with 1mm, friction coefficient 0.60.
Brut UNNT 061800Z 18003MPS 9999 -SN BKN045 M04/M06 Q1015 R25/290150 R16/220160 NOSIG RMK QFE751/1001

VFR

-5°C / -6°C

[Plus]
Vent 190º 6kt
Visibilité >10km
Météo -
Nuages Clouds and Visibility OK
Pression 1015
Changement No Significant change. Runway 25: Wet or puddles, 51-100% contamination with 1mm, friction coefficient 0.50. Runway 16: Wet or puddles, 11-25% contamination with 1mm, friction coefficient 0.60.
Brut UNNT 061730Z 19003MPS CAVOK M05/M06 Q1015 R25/290150 R16/220160 NOSIG RMK QFE751/1001

VFR

-5°C / -6°C

[Plus]
Vent 190º 6kt
Visibilité >10km
Météo -
Nuages Clouds and Visibility OK
Pression 1015
Changement No Significant change. Runway 25: Wet or puddles, 51-100% contamination with 1mm, friction coefficient 0.50. Runway 16: Wet or puddles, 11-25% contamination with 1mm, friction coefficient 0.60.
Brut UNNT 061700Z 19003MPS CAVOK M05/M06 Q1015 R25/290150 R16/220160 NOSIG RMK QFE751/1001

VFR

-5°C / -7°C

[Plus]
Vent 190º 8kt
Visibilité >10km
Météo -
Nuages Clouds and Visibility OK
Pression 1015
Changement No Significant change. Runway 25: Wet or puddles, 51-100% contamination with 1mm, friction coefficient 0.50. Runway 16: Wet or puddles, 11-25% contamination with 1mm, friction coefficient 0.60.
Brut UNNT 061630Z 19004MPS CAVOK M05/M07 Q1015 R25/290150 R16/220160 NOSIG RMK QFE751/1002

VFR

-6°C / -7°C

[Plus]
Vent 180º 8kt
Visibilité >10km
Météo -
Nuages Clouds and Visibility OK
Pression 1015
Changement No Significant change. Runway 25: Wet or puddles, 51-100% contamination with 1mm, friction coefficient 0.50. Runway 16: Wet or puddles, 11-25% contamination with 1mm, friction coefficient 0.60.
Brut UNNT 061600Z 18004MPS CAVOK M06/M07 Q1015 R25/290150 R16/220160 NOSIG RMK QFE751/1002

VFR

-6°C / -7°C

[Plus]
Vent 190º 6kt
Visibilité >10km
Météo -
Nuages Clouds and Visibility OK
Pression 1015
Changement No Significant change. Runway 25: Wet or puddles, 51-100% contamination with 1mm, friction coefficient 0.50. Runway 16: Wet or puddles, 11-25% contamination with 1mm, friction coefficient 0.60.
Brut UNNT 061530Z 19003MPS CAVOK M06/M07 Q1015 R25/290150 R16/220160 NOSIG RMK QFE752/1002

VFR

-6°C / -7°C

[Plus]
Vent 190º 8kt
Visibilité >10km
Météo -
Nuages Scattered Clouds 1500ft
Pression 1016
Changement No Significant change. Runway 25: Wet or puddles, 51-100% contamination with 1mm, friction coefficient 0.50. Runway 16: Wet or puddles, 11-25% contamination with 1mm, friction coefficient 0.60.
Brut UNNT 061500Z 19004MPS 9999 SCT015 M06/M07 Q1016 R25/290150 R16/220160 NOSIG RMK QFE752/1002

MVFR

-6°C / -7°C

[Plus]
Vent 190º 6kt
Visibilité >10km
Météo -
Nuages Broken Clouds 1500ft
Pression 1016
Changement No Significant change. Runway 25: Wet or puddles, 51-100% contamination with 1mm, friction coefficient 0.50. Runway 16: Wet or puddles, 11-25% contamination with 1mm, friction coefficient 0.60.
Brut UNNT 061430Z 19003MPS 9999 BKN015 M06/M07 Q1016 R25/290150 R16/220160 NOSIG RMK QFE752/1003

VFR

-6°C / -8°C

[Plus]
Vent 190º 8kt
Visibilité >10km
Météo -
Nuages Scattered Clouds 1200ft
Pression 1016
Changement No Significant change. Runway 25: Wet or puddles, 51-100% contamination with 1mm, friction coefficient 0.50. Runway 16: Wet or puddles, 11-25% contamination with 1mm, friction coefficient 0.60.
Brut UNNT 061400Z 19004MPS 9999 SCT012 M06/M08 Q1016 R25/290150 R16/220160 NOSIG RMK QFE752/1003

VFR

-6°C / -7°C

[Plus]
Vent 190º 6kt
Visibilité >10km
Météo -
Nuages Scattered Clouds 1200ft
Pression 1016
Changement No Significant change. Runway 25: Wet or puddles, 51-100% contamination with 1mm, friction coefficient 0.50. Runway 16: Wet or puddles, 11-25% contamination with 1mm, friction coefficient 0.60.
Brut UNNT 061330Z 19003MPS 9999 SCT012 M06/M07 Q1016 R25/290150 R16/220160 NOSIG RMK QFE752/1003

MVFR

-6°C / -7°C

[Plus]
Vent 190º 6kt
Visibilité >10km
Météo -
Nuages Broken Clouds 1000ft
Pression 1016
Changement No Significant change. Runway 25: Wet or puddles, 51-100% contamination with 1mm, friction coefficient 0.50. Runway 16: Wet or puddles, 11-25% contamination with 1mm, friction coefficient 0.60.
Brut UNNT 061300Z 19003MPS 9999 BKN010 M06/M07 Q1016 R25/290150 R16/220160 NOSIG RMK QFE752/1003

VFR

-5°C / -7°C

[Plus]
Vent 190º 6kt
Visibilité >10km
Météo -
Nuages Scattered Clouds 1000ft
Pression 1016
Changement No Significant change. Runway 25: Wet or puddles, 51-100% contamination with 1mm, friction coefficient 0.50. Runway 16: Wet or puddles, 11-25% contamination with 1mm, friction coefficient 0.60.
Brut UNNT 061230Z 19003MPS 9999 SCT010 M05/M07 Q1016 R25/290150 R16/220160 NOSIG RMK QFE752/1003

VFR

-5°C / -7°C

[Plus]
Vent 180º 6kt
Visibilité >10km
Météo -
Nuages Clouds and Visibility OK
Pression 1016
Changement No Significant change. Runway 25: Wet or puddles, 51-100% contamination with 1mm, friction coefficient 0.50. Runway 16: Wet or puddles, 11-25% contamination with 1mm, friction coefficient 0.60.
Brut UNNT 061200Z 18003MPS CAVOK M05/M07 Q1016 R25/290150 R16/220160 NOSIG RMK QFE752/1003

VFR

-5°C / -7°C

[Plus]
Vent 180º 6kt
Visibilité >10km
Météo -
Nuages Clouds and Visibility OK
Pression 1016
Changement No Significant change. Runway 25: Wet or puddles, 51-100% contamination with 1mm, friction coefficient 0.50. Runway 16: Wet or puddles, 11-25% contamination with 1mm, friction coefficient 0.60.
Brut UNNT 061130Z 18003MPS CAVOK M05/M07 Q1016 R25/290150 R16/220160 NOSIG RMK QFE752/1003

VFR

-4°C / -6°C

[Plus]
Vent 180º 8kt
Visibilité >10km
Météo -
Nuages Clouds and Visibility OK
Pression 1016
Changement No Significant change. Runway 25: Wet or puddles, 51-100% contamination with 1mm, friction coefficient 0.50. Runway 16: Wet or puddles, 11-25% contamination with 1mm, friction coefficient 0.60.
Brut UNNT 061100Z 18004MPS CAVOK M04/M06 Q1016 R25/290150 R16/220160 NOSIG RMK QFE752/1003

VFR

-4°C / -7°C

[Plus]
Vent 170º 8kt
Visibilité >10km
Météo -
Nuages Clouds and Visibility OK
Pression 1017
Changement No Significant change. Runway 25: Wet or puddles, 51-100% contamination with 1mm, friction coefficient 0.50. Runway 16: Wet or puddles, 11-25% contamination with 1mm, friction coefficient 0.60.
Brut UNNT 061030Z 17004MPS CAVOK M04/M07 Q1017 R25/290150 R16/220160 NOSIG RMK QFE752/1003

VFR

-4°C / -6°C

[Plus]
Vent 170º 6kt
Visibilité >10km
Météo -
Nuages Clouds and Visibility OK
Pression 1017
Changement No Significant change. Runway 25: Wet or puddles, 51-100% contamination with 1mm, friction coefficient 0.50. Runway 16: Wet or puddles, 11-25% contamination with 1mm, friction coefficient 0.60.
Brut UNNT 061000Z 17003MPS CAVOK M04/M06 Q1017 R25/290150 R16/220160 NOSIG RMK QFE752/1003

VFR

-3°C / -6°C

[Plus]
Vent 170º 8kt
Visibilité >10km
Météo -
Nuages Clouds and Visibility OK
Pression 1017
Changement No Significant change. Runway 25: Wet or puddles, 51-100% contamination with 1mm, friction coefficient 0.50. Runway 16: Wet or puddles, 11-25% contamination with 1mm, friction coefficient 0.60.
Brut UNNT 060930Z 17004MPS CAVOK M03/M06 Q1017 R25/290150 R16/220160 NOSIG RMK QFE752/1003

VFR

-3°C / -6°C

[Plus]
Vent 170º 8kt
Visibilité >10km
Météo -
Nuages Clouds and Visibility OK
Pression 1016
Changement No Significant change. Runway 25: Wet or puddles, 51-100% contamination with 1mm, friction coefficient 0.50. Runway 16: Wet or puddles, 11-25% contamination with 1mm, friction coefficient 0.60.
Brut UNNT 060900Z 17004MPS CAVOK M03/M06 Q1016 R25/290150 R16/220160 NOSIG RMK QFE752/1003

VFR

-2°C / -5°C

[Plus]
Vent 190º 8kt
Visibilité >10km
Météo -
Nuages Clouds and Visibility OK
Pression 1017
Changement No Significant change. Runway 25: Wet or puddles, 51-100% contamination with 1mm, friction coefficient 0.50. Runway 16: Wet or puddles, 11-25% contamination with 1mm, friction coefficient 0.60.
Brut UNNT 060830Z 19004MPS CAVOK M02/M05 Q1017 R25/290150 R16/220160 NOSIG RMK QFE752/1003

VFR

-2°C / -5°C

[Plus]
Vent 190º 8kt
Visibilité >10km
Météo -
Nuages Clouds and Visibility OK
Pression 1017
Changement No Significant change. Runway 25: Wet or puddles, 51-100% contamination with 1mm, friction coefficient 0.50. Runway 16: Frozen ridges, 26-50% contamination with 1mm, friction coefficient 0.38.
Brut UNNT 060800Z 19004MPS CAVOK M02/M05 Q1017 R25/290150 R16/950138 NOSIG RMK QFE753/1004

VFR

-2°C / -5°C

[Plus]
Vent 200º 10kt
Visibilité >10km
Météo -
Nuages Clouds and Visibility OK
Pression 1017
Changement No Significant change. Runway 25: Wet or puddles, 51-100% contamination with 1mm, friction coefficient 0.50. Runway 16: Frozen ridges, 26-50% contamination with 1mm, friction coefficient 0.38.
Brut UNNT 060730Z 20005MPS CAVOK M02/M05 Q1017 R25/290150 R16/950138 NOSIG RMK QFE753/1004

VFR

-2°C / -6°C

[Plus]
Vent 190º 10kt
Visibilité >10km
Météo -
Nuages Clouds and Visibility OK
Pression 1017
Changement No Significant change. Runway 16: Frozen ridges, 26-50% contamination with 1mm, friction coefficient 0.38. Runway 25: Wet or puddles, 51-100% contamination with 1mm, friction coefficient 0.50.
Brut UNNT 060700Z 19005MPS CAVOK M02/M06 Q1017 R16/950138 R25/290150 NOSIG RMK QFE753/1004

TAF pour 55.03°N 82.6°E (UNNT)

From till


From till Wind 190º 10kt. Gust 19kt. Visibility 3000m. Light Showers Snow . Broken Clouds 700ft. Broken Clouds 1600ft.
Temporarly from till Visibility 804.670m. Heavy Showers Snow . Broken Clouds 200ft. Broken Clouds 1000ft.
Becoming from till Wind 240º 12kt. Gust 25kt. Visibility 3000m. Light Showers Snow . Broken Clouds 700ft. Broken Clouds 1600ft.
Becoming from till Wind 240º 12kt. Gust 25kt. Visibility 6000m. Light Showers Snow low Drifting Snow . Broken Clouds 1600ft.
Temporarly from till Wind 290º 12kt. Gust 25kt. Visibility 1500m. Showers Snow low Drifting Snow . Scattered Clouds 500ft. Broken Clouds 1000ft.

Brut: TAF UNNT 061700Z 0618/0718 19005G10MPS 3000 -SHSN BKN007 BKN016CB TEMPO 0618/0704 0800 +SHSN BKN002 BKN010CB BECMG 0623/0702 24006G13MPS BECMG 0704/0705 6000 -SHSN DRSN BKN016CB TEMPO 0710/0718 29006G13MPS 1500 SHSN DRSN SCT005 BKN010CB

Radar et prévision de précipitation à court terme pour 55.03°N 82.6°E

Bruine
Légère
Modéré
Fort
Très fort
Grêle

Le marqueur est placé sur 55.03°N 82.6°E. Cette animation montre le Radar des précipitations pour les dernières heures, ainsi qu'une 1h prévision. La bruine ou les légères chutes de neiges peuvent ne pas être détectées par le radar. L'intensité des précipitations est visible avec un code couleur allant du bleu clair au violet foncé et orange.

Les images satellites et les pluies actuelles pour 55.03°N 82.6°E

Le marqueur est placé sur 55.03°N 82.6°E. [Plus]

L'image satellite en temps réel combine la lumière visible pendant la journée et le rayonnement infrarouge pendant la nuit. La nuit, l'image n'est pas sombre car le rayonnement infrarouge permet de détecter les différences de température. Malheureusement, les nuages bas et le brouillard sont difficiles à distinguer des températures au sol et peuvent donc être presque invisibles pendant la nuit. Les images des satellites Météosat pour l'Europe sont mises à jour en temps réel toutes les 5 minutes. Les images GOES-16/GOES-17 (Amérique du Nord et du Sud) et Himawari (Asie) sont mises à jour toutes les 10 minutes.

Copyright 2021 EUMETSAT / meteoblue. / Copyright 2021 meteoblue